Find Shi Jian 26

NORAD ID: 64199 Int'l Des: 2025-115 Owner: CASC Country: CN operational
LEOCIRCULARRETROGRADESSO

实时位置

正在加载3D地球...

关于 Shi Jian 26

正在加载描述...

即将过境

Passes for default location (London). Set your location on the main map for personalized predictions.

高度历史

Loading altitude history...

两行轨道根数

1 64199U 25115A 26105.92430003 .00002960 00000-0 12829-3 0 9990
2 64199 97.4572 184.8645 0018679 206.4182 153.6104 15.23030085 48969
Epoch: Apr 15, 2026 • Age: 11 hours

当前状态

高度 510.1 km
速度 7.61 km/s
星下点 -61.29°S, 16.49°E
发射日期 May 29, 2025
运行时间 0.8 years
类型 other

技术详情

分类 Payload
质量 1500.00 kg
干质量 1500.00 kg
总质量 1500.00 kg
长度 3.00 m
直径 2.00 m
跨度 12.00 m
形状 Box + 2 Pan
制造商 HARB/DFH
平台类型 CAST-968
阶段状态 In Orbit
所有者/国家 CASC/CN

Most Searched